Lid_Strength_Index
5 4 4 4 4 3 3 3 3 4 3 4 4 4 4 7 7 8 11 9 7 5 5 7 7 7 7 7 6 5 9 11 10 9 9 11 12 14 14 14 14 15 14 14 14
5 5 5 4 4 3 3 4 4 4 4 4 4 4 4 4 9 11 9 6 6 5 8 8 8 8 9 8 7 7 9 9 10 9 9 11 10 12 12 15 16 15 16 15 14
5 5 5 5 4 4 4 4 5 5 4 4 4 4 4 5 9 12 7 6 5 5 7 7 7 7 9 8 9 9 9 10 11 10 11 12 13 12 10 12 12 15 16 15 15
6 6 5 5 4 4 4 4 4 4 4 4 4 4 3 6 12 11 7 7 6 8 8 8 7 8 9 10 10 11 12 11 13 12 11 13 12 13 12 13 13 13 14 15 15
6 5 5 5 5 4 5 4 4 5 4 5 4 4 6 9 12 10 8 8 9 8 9 9 9 9 10 11 11 12 13 12 12 12 12 12 12 13 15 14 14 14 15 15 16
6 5 5 5 4 5 5 6 6 6 4 4 4 5 8 11 11 10 10 10 10 9 9 8 9 8 10 12 11 11 11 13 13 12 12 13 13 13 13 14 14 15 15 15 15
6 6 6 5 5 5 5 6 6 6 6 6 8 9 10 12 10 10 10 11 10 10 9 9 9 8 8 11 10 10 12 12 12 12 12 12 12 13 11 12 13 13 14 14 15
6 6 6 6 5 5 5 6 6 7 7 8 9 9 13 11 9 11 10 10 10 10 10 9 7 8 9 9 10 11 11 12 13 12 12 12 12 11 11 12 12 12 12 13 13
6 6 6 6 6 5 5 7 7 7 8 8 8 9 14 10 11 10 10 11 10 9 9 9 8 10 10 11 12 11 13 12 13 13 13 12 12 12 11 11 11 11 11 12 12
6 6 6 6 5 4 5 7 8 8 8 9 9 11 12 13 12 11 10 10 10 9 9 9 9 10 10 11 15 13 14 14 13 14 14 13 13 11 11 12 11 10 11 11 12
6 6 5 5 4 6 6 7 9 10 11 14 14 14 13 12 11 11 11 10 10 10 11 11 11 13 13 14 13 13 14 14 13 15 15 14 13 12 11 12 12 11 11 11 11
6 6 6 5 6 7 7 9 10 10 15 13 14 13 12 12 13 11 10 11 11 13 13 12 14 15 15 14 13 13 14 14 13 15 15 14 14 12 11 11 11 10 10 10 11
7 6 6 6 7 8 9 10 9 10 12 15 14 13 13 12 14 13 12 12 12 14 14 13 16 16 15 15 15 15 15 15 16 14 14 15 13 12 11 10 10 10 9 9 10
7 6 6 5 9 9 9 9 8 8 11 15 15 14 13 13 15 13 12 13 14 15 14 15 16 16 15 16 16 16 16 16 16 15 16 14 17 12 10 11 11 11 10 9 9
7 6 5 5 8 10 9 8 7 8 16 15 15 12 13 14 14 14 12 12 14 16 15 18 17 16 16 17 16 17 16 16 16 15 16 15 17 13 12 11 11 10 10 9 9
7 7 7 8 8 10 8 7 8 12 17 17 15 15 15 14 15 14 13 12 13 15 15 17 16 16 16 16 16 15 15 15 15 15 17 16 16 14 12 12 11 10 10 9 9
8 8 9 9 10 9 7 8 13 15 16 16 16 16 15 16 16 15 15 15 15 15 17 18 18 17 16 16 15 15 16 16 17 17 17 17 18 14 11 11 11 11 10 10 9
8 10 11 11 9 8 8 10 16 14 15 16 16 16 16 16 16 16 16 16 16 15 16 17 18 18 17 16 16 16 15 15 19 18 17 17 18 12 11 11 10 10 10 10 9
9 9 10 10 9 8 9 14 15 12 14 16 16 16 16 17 17 16 16 15 14 15 13 16 19 18 18 16 16 16 17 15 17 21 19 15 13 11 12 11 11 11 11 10 9
9 10 11 10 8 8 12 12 12 14 15 15 14 15 14 17 17 17 16 14 16 16 16 15 19 19 18 16 16 17 15 18 16 19 20 16 16 15 12 12 11 11 10 10 10
10 12 11 9 8 9 13 12 15 14 15 15 15 16 15 17 15 15 13 17 16 17 16 14 15 20 19 19 17 19 18 18 17 17 18 18 15 9 11 11 11 11 10 10 9
10 13 10 9 11 13 12 14 15 15 15 15 15 15 15 16 16 15 15 16 14 15 17 15 13 19 18 18 18 18 16 15 16 18 18 18 17 11 11 11 11 11 11 10 10
11 12 10 9 13 13 17 17 15 16 16 16 16 15 15 16 15 16 17 17 16 16 16 15 15 18 19 19 19 20 18 16 17 17 18 18 16 13 12 12 11 11 11 10 10
11 14 12 10 13 12 15 16 17 16 16 16 16 16 16 17 17 19 18 17 17 16 16 15 16 16 16 16 17 20 19 17 17 18 17 17 15 12 11 11 10 11 10 10 10
12 13 13 15 13 13 14 15 17 18 17 16 18 16 15 19 19 18 17 18 17 16 17 16 18 21 19 18 18 18 20 19 19 16 17 15 14 12 11 12 11 11 11 11 11
13 14 16 16 15 14 14 16 16 16 17 18 18 16 16 17 15 18 17 17 17 17 18 20 18 23 21 19 19 21 20 20 18 17 16 15 16 11 11 11 12 12 12 12 12
12 14 11 15 15 14 14 14 15 15 16 15 16 16 17 16 16 15 15 14 15 17 18 20 21 20 19 20 20 22 22 20 18 17 16 18 14 12 12 13 13 13 12 12 12